User: anonymous   Login
Location: Spruce Knob
(38.6995°N, 79.5330°W)
Time: 22:18:36
(UTC-05:00)
Language:

A-11 Canister half - Orbit

View from above orbital plane
View from above orbital plane
View from above satellite
View from above satellite

Ground track
Ground track

The orbit data is extracted from the following two-line orbital elements,

1 00053U 60009E   22022.05047748 -.00000010  00000-0  73997-3 0  9996
2 00053  47.2749 259.2477 0100210   6.3970 353.8075 12.17268691739652
Epoch (UTC): 22 January 2022 01:12:41
Eccentricity: 0.0100210
inclination: 47.2749°
perigee height: 1524 km
apogee height: 1684 km
right ascension of ascending node: 259.2477°
argument of perigee: 6.3970°
revolutions per day: 12.17268691
mean anomaly at epoch: 353.8075°
orbit number at epoch: 73965

The dashed part of the orbit path shows where the satellite is in the earth's shadow,  

DLR